Weather History for KPWT - January, 2012

Change the Weather History Date:

Tuesday, January 17, 2012

  Actual Average Record
Temperature  
Mean Temperature 26 °F -  
Max Temperature 35 °F 43 °F 53 °F (2015)
Min Temperature 17 °F 34 °F 17 °F (2012)
Degree Days  
Heating Degree Days 39    
Moisture  
Dew Point 28 °F    
Average Humidity 91    
Maximum Humidity 100    
Minimum Humidity 75    
Precipitation  
Precipitation 0.14 in - - ()
Sea Level Pressure  
Sea Level Pressure 29.89 in    
Wind  
Wind Speed 11 mph (South)    
Max Wind Speed 16 mph    
Max Gust Speed 24 mph    
Visibility 9 miles    
Events      
Averages and records for this station are not official NWS values.
T = Trace of Precipitation, MM = Missing Value Source: NWS Daily Summary

Daily Weather History Graph

Daily Weather History Graph

Search for Another Location

Airport or City:

Trip Planner

Search our weather history database for the weather conditions in past years. The results will help you decide how hot, cold, wet, or windy it might be!

Date:

Astronomy

Jan. 17, 2012 Rise Set
Actual Time 7:53 AM PST 4:49 PM PST
Civil Twilight 7:18 AM PST 5:24 PM PST
Nautical Twilight 6:40 AM PST 6:02 PM PST
Astronomical Twilight 6:03 AM PST 6:38 PM PST
Moon 2:16 AM PST (1/17) 11:47 AM PST (1/17)
Length of Visible Light 10h 05m
Length of Day
8h 56m
Waning Crescent, 34% of the Moon is Illuminated
Jan 17
Waning Crescent
Jan 22
New
Jan 30
First Quarter
Feb 7
Full
Feb 14
Last Quarter

Hourly Weather History & Observations

Time (PST) Temp. Windchill Dew Point Humidity Pressure Visibility Wind Dir Wind Speed Gust Speed Precip Events Conditions
12:15 AM 32.0 °F 22.1 °F 30.2 °F 93% 29.95 in 10.0 mi South 13.8 mph 19.6 mph N/A   Overcast
12:35 AM 32.0 °F 23.0 °F 30.2 °F 93% 29.94 in 5.0 mi South 11.5 mph - N/A   Overcast
12:55 AM 32.0 °F 23.0 °F 30.2 °F 93% 29.93 in 3.0 mi South 11.5 mph 16.1 mph N/A   Overcast
1:35 AM 32.0 °F 21.2 °F 30.2 °F 93% 29.93 in 10.0 mi South 16.1 mph 24.2 mph 0.01 in   Overcast
1:55 AM 32.0 °F 22.1 °F 30.2 °F 93% 29.93 in 9.0 mi South 13.8 mph - 0.02 in   Overcast
2:15 AM 32.0 °F 23.0 °F 30.2 °F 93% 29.91 in 5.0 mi South 11.5 mph 18.4 mph N/A   Overcast
2:35 AM 32.0 °F 22.5 °F 30.2 °F 93% 29.90 in 8.0 mi South 12.7 mph 20.7 mph 0.01 in   Overcast
2:55 AM 32.0 °F 21.6 °F 30.2 °F 93% 29.88 in 10.0 mi South 15.0 mph 23.0 mph 0.01 in   Overcast
3:15 AM 32.0 °F 21.2 °F 30.2 °F 93% 29.87 in 10.0 mi SSE 16.1 mph 21.9 mph 0.01 in   Overcast
3:35 AM 32.0 °F 22.1 °F 30.2 °F 93% 29.87 in 8.0 mi South 13.8 mph 20.7 mph 0.01 in   Overcast
4:15 AM 32.0 °F 23.0 °F 30.2 °F 93% 29.87 in 2.5 mi South 11.5 mph - 0.01 in   Overcast
4:35 AM 32.0 °F 22.1 °F 30.2 °F 93% 29.86 in 10.0 mi South 13.8 mph 17.3 mph 0.01 in   Overcast
4:55 AM 32.0 °F 23.0 °F 30.2 °F 93% 29.85 in 4.0 mi South 11.5 mph 17.3 mph 0.01 in   Overcast
5:15 AM 32.0 °F 23.0 °F 30.2 °F 93% 29.85 in 5.0 mi South 11.5 mph 16.1 mph N/A   Overcast
5:35 AM 32.0 °F 23.6 °F 30.2 °F 93% 29.85 in 10.0 mi South 10.4 mph - N/A   Overcast
5:55 AM 32.0 °F 23.6 °F 30.2 °F 93% 29.84 in 10.0 mi South 10.4 mph - 0.01 in   Overcast
6:15 AM 32.0 °F 22.5 °F 30.2 °F 93% 29.83 in 7.0 mi South 12.7 mph - N/A   Mostly Cloudy
6:35 AM 32.0 °F 22.5 °F 30.2 °F 93% 29.83 in 5.0 mi South 12.7 mph - N/A   Overcast
7:15 AM 32.0 °F 23.6 °F 30.2 °F 93% 29.83 in 10.0 mi South 10.4 mph - N/A   Mostly Cloudy
7:35 AM 32.0 °F 22.5 °F 30.2 °F 93% 29.82 in 10.0 mi South 12.7 mph 16.1 mph N/A   Overcast
7:55 AM 32.0 °F 23.6 °F 30.2 °F 93% 29.81 in 2.0 mi South 10.4 mph 16.1 mph 0.01 in   Overcast
8:15 AM 32.0 °F 23.0 °F 30.2 °F 93% 29.81 in 9.0 mi South 11.5 mph 17.3 mph N/A   Overcast
8:35 AM 32.0 °F 22.1 °F 30.2 °F 93% 29.81 in 10.0 mi South 13.8 mph - N/A   Overcast
8:55 AM 32.0 °F 21.2 °F 30.2 °F 93% 29.82 in 3.0 mi South 16.1 mph 21.9 mph 0.01 in   Overcast
9:15 AM 32.0 °F 24.2 °F 30.2 °F 93% 29.82 in 6.0 mi South 9.2 mph - N/A   Mostly Cloudy
9:35 AM 32.0 °F 23.6 °F 30.2 °F 93% 29.81 in 10.0 mi South 10.4 mph - 0.01 in   Mostly Cloudy
9:55 AM 32.0 °F 23.0 °F 30.2 °F 93% 29.82 in 10.0 mi South 11.5 mph 18.4 mph 0.02 in   Overcast
10:15 AM 32.0 °F 22.1 °F 30.2 °F 93% 29.83 in 2.0 mi SSW 13.8 mph - 0.01 in   Overcast
10:35 AM 32.0 °F 23.0 °F 30.2 °F 93% 29.83 in 1.8 mi South 11.5 mph - 0.01 in   Overcast
10:55 AM 32.0 °F 22.1 °F 30.2 °F 93% 29.83 in 10.0 mi South 13.8 mph 18.4 mph 0.03 in   Overcast
11:15 AM 33.8 °F 24.3 °F 30.2 °F 87% 29.83 in 10.0 mi SSW 13.8 mph - 0.01 in   Overcast
12:15 PM 35.6 °F 28.6 °F 32.0 °F 87% 29.85 in 10.0 mi SW 9.2 mph - N/A   Mostly Cloudy
12:35 PM 35.6 °F 28.6 °F 30.2 °F 81% 29.84 in 10.0 mi SSW 9.2 mph - N/A   Mostly Cloudy
12:55 PM 33.8 °F 27.0 °F 30.2 °F 87% 29.86 in 10.0 mi South 8.1 mph - N/A   Mostly Cloudy
1:15 PM 33.8 °F 25.3 °F 30.2 °F 87% 29.85 in 10.0 mi South 11.5 mph - N/A   Scattered Clouds
1:55 PM 33.8 °F 24.8 °F 28.4 °F 81% 29.86 in 10.0 mi SSW 12.7 mph - N/A   Clear
2:15 PM 33.8 °F 24.3 °F 28.4 °F 81% 29.88 in 10.0 mi SSW 13.8 mph - N/A   Clear
2:35 PM 35.6 °F 26.2 °F 28.4 °F 75% 29.87 in 10.0 mi SSW 15.0 mph - N/A   Clear
2:55 PM 33.8 °F 25.8 °F 28.4 °F 81% 29.89 in 10.0 mi South 10.4 mph - N/A   Partly Cloudy
3:15 PM 33.8 °F 25.8 °F 30.2 °F 87% 29.88 in 10.0 mi South 10.4 mph - N/A   Mostly Cloudy
3:35 PM 33.8 °F 26.4 °F 28.4 °F 81% 29.90 in 10.0 mi South 9.2 mph - N/A   Mostly Cloudy
3:55 PM 32.0 °F 26.4 °F 28.4 °F 87% 29.90 in 10.0 mi South 5.8 mph - N/A   Partly Cloudy
4:15 PM 32.0 °F 27.5 °F 28.4 °F 87% 29.90 in 10.0 mi South 4.6 mph - N/A   Clear
4:35 PM 32.0 °F 26.4 °F 28.4 °F 87% 29.90 in 10.0 mi South 5.8 mph - N/A   Mostly Cloudy
4:55 PM 30.2 °F 24.3 °F 28.4 °F 93% 29.92 in 10.0 mi South 5.8 mph - N/A   Scattered Clouds
5:15 PM 30.2 °F 25.4 °F 28.4 °F 93% 29.92 in 10.0 mi South 4.6 mph - N/A   Scattered Clouds
5:35 PM 30.2 °F 23.4 °F 26.6 °F 86% 29.91 in 10.0 mi South 6.9 mph - N/A   Scattered Clouds
5:55 PM 30.2 °F 26.7 °F 26.6 °F 86% 29.92 in 10.0 mi South 3.5 mph - N/A   Clear
6:15 PM 28.4 °F 22.2 °F 26.6 °F 93% 29.93 in 10.0 mi South 5.8 mph - N/A   Clear
6:35 PM 30.2 °F 23.4 °F 26.6 °F 86% 29.94 in 10.0 mi South 6.9 mph - N/A   Clear
6:55 PM 28.4 °F 23.3 °F 24.8 °F 86% 29.94 in 10.0 mi SSW 4.6 mph - N/A   Clear
7:35 PM 19.4 °F - 19.4 °F 100% 29.94 in 10.0 mi Calm Calm - N/A   Clear
7:55 PM 17.6 °F - 17.6 °F 100% 29.95 in 10.0 mi Calm Calm - N/A   Clear
8:15 PM 19.4 °F 11.5 °F 19.4 °F 100% 29.96 in 10.0 mi ENE 5.8 mph - N/A   Clear
8:35 PM 24.8 °F 19.1 °F 24.8 °F 100% 29.97 in 10.0 mi East 4.6 mph - N/A   Clear
8:55 PM 26.6 °F - 24.8 °F 93% 29.97 in 10.0 mi Calm Calm - N/A   Clear
9:15 PM 26.6 °F 21.2 °F 24.8 °F 93% 29.97 in 10.0 mi East 4.6 mph - N/A   Clear
9:35 PM 26.6 °F 22.6 °F 23.0 °F 86% 29.96 in 10.0 mi ENE 3.5 mph - N/A   Clear
9:55 PM 26.6 °F - 24.8 °F 93% 29.96 in 10.0 mi Calm Calm - N/A   Clear
10:15 PM 26.6 °F 21.2 °F 24.8 °F 93% 29.97 in 10.0 mi North 4.6 mph - N/A   Clear
10:35 PM 26.6 °F 21.2 °F 26.6 °F 100% 29.97 in 10.0 mi ENE 4.6 mph - N/A   Clear
10:55 PM 28.4 °F 24.6 °F 26.6 °F 93% 29.99 in 10.0 mi ENE 3.5 mph - N/A   Clear
11:15 PM 28.4 °F 24.6 °F 26.6 °F 93% 29.98 in 10.0 mi ENE 3.5 mph - N/A   Mostly Cloudy
11:35 PM 28.4 °F 24.6 °F 26.6 °F 93% 29.98 in 10.0 mi NE 3.5 mph - N/A   Overcast
11:55 PM 28.4 °F - 26.6 °F 93% 29.98 in 10.0 mi Calm Calm - N/A   Overcast